Wind_Speed
23 25 26 27 27 27 27 27 27 26 25 24 23 23 24 24 25 25 26 26 27 26 26 26 25 24 24 24 24 24 24 25 26 27 27 27 28 30 31 33 35 36 37 39 40 40 41 41 42 42 42 43 43 44 45 46 47 48 49 50 50 50 51 51 51 51 51 50 50 49 49 50 51 50 49 48 47 47 47 48 49 51 53 52 51 53 55
25 26 26 26 25 25 25 25 25 24 23 22 22 22 23 23 24 25 25 25 25 25 25 24 24 23 23 23 24 24 25 26 27 27 27 28 29 31 32 34 35 36 38 39 39 40 40 41 41 42 42 43 44 46 47 48 49 51 52 53 53 53 54 54 55 55 55 55 55 54 53 53 53 52 51 50 49 48 48 48 49 50 53 53 50 51 55
25 25 24 23 23 23 23 23 22 22 21 21 22 22 22 23 24 24 24 24 24 24 23 23 22 23 23 24 25 26 27 27 27 27 27 28 30 31 33 34 35 37 38 38 39 40 40 41 42 43 44 45 46 47 48 50 51 53 54 56 57 58 58 59 60 60 60 59 59 59 58 57 57 56 55 54 52 50 49 49 51 51 53 55 53 52 55
23 22 21 21 22 22 21 21 20 20 20 20 21 22 22 23 23 23 23 23 23 22 22 22 22 23 24 25 26 27 27 27 27 27 28 29 31 32 34 35 36 37 37 38 39 40 41 42 43 44 45 46 47 49 50 52 54 55 57 58 60 61 62 63 65 66 66 66 66 66 65 64 63 62 61 59 57 55 52 52 54 54 54 56 58 56 56
20 19 19 20 20 20 20 19 19 19 19 20 21 21 22 22 22 23 23 22 22 22 22 23 23 25 26 26 27 28 28 27 27 28 29 31 32 33 34 35 36 37 38 39 39 41 42 43 44 45 46 48 49 50 52 53 55 57 58 60 62 64 65 67 68 69 70 71 71 71 71 71 70 68 67 65 63 60 57 55 56 56 55 56 59 60 59
17 18 18 19 19 19 18 18 18 18 19 20 20 21 22 22 22 22 22 21 21 22 23 24 25 26 27 28 28 28 28 28 29 29 31 32 33 33 34 35 36 37 38 39 40 42 43 44 45 46 47 48 50 51 52 54 55 57 59 61 63 64 66 68 70 71 73 74 75 76 76 75 75 73 71 70 68 66 62 59 58 58 58 58 59 61 61
16 17 18 18 18 18 17 17 17 18 19 20 20 21 21 22 22 21 21 21 22 22 24 25 26 27 28 29 29 29 29 29 29 30 31 32 33 33 34 36 37 38 39 40 41 43 44 45 46 47 48 49 50 52 53 54 56 57 59 61 62 64 66 68 69 71 73 74 76 77 78 78 78 77 75 74 72 70 66 62 60 60 61 61 60 61 62
16 16 17 17 17 17 16 17 17 18 19 20 21 21 21 22 22 21 21 21 22 23 24 25 26 28 29 29 29 29 29 29 30 31 32 32 33 34 35 36 37 38 40 41 42 43 44 45 46 47 48 49 51 52 53 55 56 57 59 60 62 63 65 67 69 70 72 73 75 76 78 79 79 80 79 77 76 74 70 66 64 63 62 62 61 61 62
15 16 16 16 16 16 16 16 17 18 19 20 21 21 22 22 22 22 22 22 22 23 24 25 27 28 29 29 29 29 29 30 31 31 32 33 34 35 36 37 38 39 40 41 42 43 44 46 47 47 48 49 51 52 53 55 56 57 59 60 62 63 65 66 68 70 71 73 74 75 77 79 80 81 81 80 79 79 76 72 69 66 64 63 63 63 63
15 15 16 16 16 15 16 16 17 18 19 20 21 21 21 22 22 22 22 22 23 23 25 26 27 28 29 29 29 29 29 30 31 32 33 34 35 35 36 37 38 39 40 42 43 44 45 46 47 48 49 50 51 52 53 55 56 57 59 60 62 63 64 66 67 70 71 73 74 76 77 78 80 81 82 82 82 82 81 77 73 70 68 66 65 65 66
14 15 15 16 15 15 15 16 17 19 19 20 21 21 21 22 22 22 22 22 23 24 25 26 27 28 29 29 29 29 29 30 31 32 33 34 35 36 37 37 39 40 41 42 43 44 45 46 47 49 50 51 51 52 53 54 56 57 59 60 62 63 64 65 67 68 71 73 74 76 78 78 80 81 83 84 84 85 84 82 77 75 73 71 70 69 69
14 15 15 15 15 15 15 16 18 19 19 20 21 21 21 21 21 22 22 22 23 24 25 26 27 28 28 29 29 29 30 31 32 33 34 35 36 36 37 38 39 40 41 42 44 45 46 47 48 49 50 51 52 53 54 55 56 58 59 60 61 63 64 65 67 68 70 72 74 76 77 79 80 82 84 85 85 86 86 86 83 79 77 75 73 72 72
15 15 15 15 14 15 15 16 18 19 19 20 20 21 21 21 21 22 22 23 23 24 25 26 27 27 28 28 29 30 31 32 33 34 35 35 36 37 38 39 40 41 42 43 44 45 46 47 48 49 50 52 53 54 56 57 57 58 59 61 62 63 64 65 67 68 70 72 74 75 77 79 81 83 84 85 86 86 87 88 87 83 80 78 76 74 74
15 15 14 14 14 14 15 17 18 19 19 20 20 20 20 21 21 22 22 23 24 25 25 26 27 27 28 28 29 30 31 32 33 34 35 36 37 38 39 40 41 42 43 44 45 46 47 47 48 49 50 52 53 54 56 57 58 59 60 61 62 63 64 65 67 68 69 71 73 75 77 79 80 81 83 84 86 87 87 88 89 87 83 80 78 77 75
14 14 14 14 14 14 15 17 18 19 19 20 20 20 20 21 22 22 23 24 25 25 26 27 27 28 28 29 30 30 31 32 33 34 35 36 37 38 39 40 41 42 43 44 45 46 47 48 48 48 49 50 51 52 53 55 57 59 60 61 62 64 65 66 67 68 70 71 73 74 76 77 79 81 82 84 86 87 88 89 90 89 87 84 81 79 78
14 14 13 13 13 15 16 17 18 19 19 19 19 20 20 21 22 23 23 24 25 27 27 28 28 29 29 30 30 31 32 33 34 35 35 36 37 38 39 40 41 42 44 45 46 47 48 48 48 48 48 49 50 51 52 54 56 58 59 61 62 64 65 66 67 69 71 73 75 77 78 79 81 82 84 85 87 88 89 90 91 91 90 87 84 82 81
13 13 13 13 13 15 16 17 18 19 19 19 19 19 20 22 23 23 24 25 27 28 28 29 30 30 30 31 31 32 32 33 34 35 36 36 38 39 40 41 42 43 44 45 47 48 48 49 49 50 50 50 51 52 52 53 55 57 58 60 62 64 65 66 68 70 71 73 75 78 80 81 82 83 84 86 87 89 90 91 93 93 93 91 88 85 84
13 13 13 13 14 15 17 17 18 19 19 19 19 20 21 22 23 24 25 26 28 29 29 30 30 31 31 32 32 33 33 34 35 36 36 37 38 39 40 41 42 43 44 45 47 48 49 49 50 51 51 52 53 54 55 54 55 56 58 60 61 63 65 66 67 69 71 72 74 77 80 81 82 83 85 87 88 90 92 94 95 96 97 95 93 90 88
13 13 12 13 14 15 17 17 18 19 19 19 19 21 22 23 24 25 26 27 28 29 30 30 31 31 32 33 33 34 35 35 36 37 38 39 39 40 41 42 43 44 45 46 47 49 50 51 51 52 52 53 54 56 57 58 58 58 60 61 62 63 65 66 68 69 71 72 74 75 78 80 82 83 85 87 89 90 92 95 97 99 100 100 98 95 92
13 13 12 12 14 15 16 17 18 19 19 19 20 21 22 24 25 26 27 28 28 29 30 30 31 32 33 34 34 35 36 37 37 38 39 40 40 41 41 42 43 44 46 47 48 49 51 51 52 52 53 54 55 56 58 60 61 61 61 63 64 65 66 67 69 70 72 73 75 76 78 80 83 84 86 87 89 91 93 96 98 100 102 103 102 100 97
13 13 12 13 14 15 16 17 18 19 19 20 21 22 23 25 26 26 26 27 28 28 29 30 31 32 33 34 35 36 37 37 38 39 39 40 41 41 42 42 43 44 46 47 48 50 51 52 53 54 54 55 57 58 59 60 61 62 63 64 65 67 68 69 71 73 74 75 77 79 80 81 83 85 87 89 91 93 95 97 99 101 103 104 105 104 101
13 13 13 13 14 16 17 18 19 20 20 20 21 22 23 24 25 25 25 26 26 27 28 29 31 32 33 35 36 37 37 38 39 40 41 41 41 42 43 43 44 45 46 47 48 50 52 53 54 55 56 57 58 59 60 60 61 62 63 64 66 67 69 71 72 74 76 77 78 80 82 83 84 85 87 89 92 94 96 97 99 101 103 105 106 106 105
14 14 13 13 14 16 17 18 19 19 20 20 21 22 23 23 24 25 25 26 26 27 28 30 32 33 35 36 37 38 39 40 41 41 42 43 43 44 44 45 46 46 47 48 49 51 53 55 56 57 58 58 59 59 60 61 62 63 63 64 66 67 69 71 72 73 74 76 78 80 82 83 84 85 87 88 91 93 95 97 99 100 103 105 107 108 107
14 14 14 14 15 16 17 18 19 19 20 21 21 22 23 23 24 25 26 27 28 29 30 32 33 34 36 37 39 40 41 42 42 43 44 44 45 46 46 47 47 48 49 49 50 52 54 56 58 59 60 61 61 61 61 62 63 64 64 64 65 67 68 70 72 73 74 76 78 80 81 83 84 86 87 88 90 92 94 96 98 100 102 104 107 108 109
15 15 14 14 15 16 17 18 19 20 21 21 22 22 23 24 25 26 27 28 29 30 31 33 34 35 37 38 40 42 43 43 44 45 45 46 47 47 48 49 49 50 50 51 52 54 56 57 58 59 60 61 62 63 63 63 64 65 67 67 68 69 70 72 74 75 76 77 78 80 82 84 85 86 88 89 90 92 94 96 98 100 102 104 106 109 110
16 16 15 15 16 17 18 19 19 20 21 22 22 23 24 25 26 28 29 29 30 31 33 34 36 37 39 40 42 43 44 45 46 46 47 47 48 49 50 50 51 51 52 52 53 54 56 57 57 58 58 59 61 63 64 65 66 68 70 71 72 73 75 75 77 78 79 79 80 80 81 84 86 87 88 89 91 92 94 96 98 100 102 104 106 108 110
17 17 17 16 17 18 18 19 20 20 21 22 23 24 25 26 28 29 30 31 32 33 34 36 37 39 41 42 43 44 45 46 47 48 48 49 49 50 51 52 52 52 52 53 54 55 56 56 56 56 56 58 60 62 65 66 67 69 72 74 76 77 78 79 80 81 82 83 84 84 83 84 86 88 89 90 92 93 95 97 99 100 102 104 106 109 111
18 18 18 18 18 19 19 20 20 21 22 23 24 25 26 27 29 30 32 33 34 34 36 37 39 41 42 44 45 46 47 48 49 50 50 50 50 51 52 53 53 53 54 54 55 56 56 55 55 55 56 57 59 61 64 67 68 70 72 75 78 80 81 82 83 84 86 87 88 89 88 88 89 90 90 91 93 94 96 98 99 101 103 105 107 109 111
19 20 20 19 20 20 21 21 22 22 23 24 25 27 28 29 30 32 33 35 36 37 38 39 41 42 44 45 46 47 49 50 50 51 51 52 52 52 52 53 54 55 55 55 56 57 56 55 54 55 56 57 58 60 63 66 70 72 73 75 78 80 82 84 85 86 88 90 92 93 93 93 93 93 93 93 94 95 96 98 100 102 104 106 108 110 112
20 21 22 21 21 22 22 23 24 24 24 25 26 28 29 30 31 33 34 36 37 38 40 41 43 44 45 46 48 49 50 50 51 52 53 53 53 53 53 53 54 55 56 57 57 57 56 55 54 55 56 58 60 60 62 66 69 72 74 76 78 80 83 85 87 88 90 91 93 95 96 96 96 96 96 96 96 96 97 99 101 103 105 107 109 111 113
21 22 23 23 23 24 24 25 25 26 26 27 27 28 30 31 32 34 36 37 38 39 41 42 44 45 47 48 49 50 50 51 51 53 53 54 54 53 53 54 54 55 56 57 58 58 57 56 55 56 57 59 61 63 65 67 69 72 75 78 80 82 84 87 89 90 92 93 94 97 98 99 99 99 99 98 98 98 98 99 101 103 105 107 109 111 113
23 23 24 25 25 26 26 27 27 28 28 28 29 30 31 32 34 35 37 38 39 40 42 43 44 46 48 49 50 50 51 52 53 54 55 55 56 56 55 55 54 55 56 57 59 59 59 58 57 58 59 60 63 65 67 69 71 74 76 78 81 83 86 88 90 92 94 95 96 98 99 101 102 102 101 100 100 99 99 99 101 103 105 107 109 111 113
25 25 26 27 27 28 28 28 29 30 30 31 31 32 33 34 35 37 38 39 40 41 42 44 45 47 48 50 51 52 53 53 54 55 56 57 57 58 58 58 56 56 57 58 59 59 60 59 59 60 61 62 63 65 68 71 73 75 77 79 81 84 87 89 91 93 95 97 98 100 101 102 103 103 103 102 102 101 100 100 101 103 105 107 109 111 113
26 26 27 28 29 29 30 30 31 32 32 33 33 34 35 36 37 39 40 41 42 43 44 45 47 48 50 51 53 53 54 54 55 56 56 57 57 58 58 59 58 57 57 58 59 60 61 61 61 62 64 65 65 66 68 71 74 76 78 80 82 84 86 89 91 94 96 97 99 101 102 103 104 105 105 104 103 103 102 101 102 103 105 108 110 112 114
28 28 28 29 30 31 32 32 32 33 34 35 35 36 37 38 39 40 42 42 43 44 46 46 47 49 51 52 54 54 55 56 56 56 56 57 57 58 58 59 59 59 58 59 60 60 62 63 64 64 65 67 68 68 70 72 75 77 80 82 84 85 87 88 91 93 95 97 100 102 104 105 106 107 107 107 105 104 103 103 103 104 106 108 111 113 114
29 30 30 31 32 33 33 34 34 35 36 37 37 38 39 40 41 42 43 44 45 46 47 48 49 50 51 52 53 55 56 57 57 57 57 57 58 59 59 59 60 60 59 59 60 61 62 63 65 66 67 69 70 72 73 74 76 78 81 83 85 87 88 89 91 93 95 98 100 102 104 106 107 108 109 108 107 106 105 104 104 104 106 109 111 113 115
31 31 31 32 33 34 35 36 36 37 37 38 39 40 41 42 43 44 45 47 47 48 49 50 51 52 53 53 54 55 56 57 58 58 58 58 59 60 60 60 60 60 60 60 60 60 61 63 65 67 69 71 72 74 75 76 78 80 82 84 86 88 90 91 92 94 96 98 101 103 105 107 109 110 110 110 108 107 106 105 105 105 107 109 112 114 116
33 33 33 33 34 35 36 37 38 39 39 40 41 42 43 44 45 46 47 48 49 50 51 52 52 53 54 56 56 56 57 58 59 60 59 59 59 60 61 61 61 61 61 60 60 60 61 62 64 66 69 71 73 74 76 77 79 81 83 85 87 89 91 92 93 95 97 100 102 104 107 108 110 111 111 111 109 107 106 105 105 106 107 110 112 114 116
35 35 35 35 35 36 37 38 39 40 41 41 42 43 45 46 47 48 49 50 51 52 53 54 54 54 55 56 57 58 58 59 60 61 62 61 61 61 63 63 62 63 63 63 62 62 62 62 64 66 68 70 73 74 76 78 80 82 84 86 88 90 92 93 95 97 99 101 104 106 109 110 111 112 112 112 110 107 106 105 105 106 107 110 112 115 117
36 37 36 37 37 37 38 39 40 41 42 43 44 45 46 47 48 49 51 52 53 54 55 55 56 56 56 57 58 58 59 60 60 61 62 63 63 63 65 65 66 65 65 65 65 64 63 64 65 67 69 70 73 75 76 78 81 84 86 87 89 91 93 95 96 98 100 102 105 108 110 112 113 114 113 112 110 108 106 105 105 106 108 110 113 115 117
38 38 38 38 38 39 40 41 41 42 43 44 45 45 46 47 48 50 51 53 54 55 56 56 56 57 57 57 58 59 60 60 61 62 62 63 63 64 65 67 68 68 68 68 68 67 65 65 67 69 71 72 74 76 77 79 82 85 87 88 90 92 94 96 98 100 101 103 106 109 111 113 115 115 115 113 111 108 106 105 105 106 108 111 113 116 118
40 40 39 39 39 40 41 42 43 43 44 45 46 47 47 48 49 50 52 53 54 55 56 56 57 57 57 58 59 60 60 61 62 62 62 63 64 64 65 67 68 69 69 70 70 70 69 68 69 71 73 74 76 77 79 80 82 85 88 90 91 93 95 96 98 101 103 105 107 110 113 114 115 116 115 114 111 108 106 105 105 106 109 111 114 116 118
41 41 41 41 41 41 42 43 43 44 45 45 47 48 49 49 50 51 52 54 55 56 56 57 57 58 58 58 59 60 61 62 63 64 64 64 65 65 66 67 69 69 70 71 72 73 73 72 71 72 74 76 78 79 81 82 83 86 88 91 93 94 96 97 99 101 104 107 109 112 114 115 116 116 116 114 111 108 106 105 105 107 109 112 114 117 119
43 43 42 42 42 42 43 44 45 45 45 46 47 48 49 50 51 52 53 55 56 57 58 58 59 59 59 59 60 61 62 63 64 65 65 65 66 67 68 69 70 70 71 72 74 74 74 74 74 74 75 77 79 81 83 84 85 87 89 92 94 95 97 99 101 103 105 108 111 113 115 116 116 116 115 113 110 107 105 105 106 107 110 112 115 117 120
45 45 44 43 44 44 44 45 46 46 46 47 48 49 50 51 51 52 53 55 56 57 58 59 59 60 60 60 61 62 63 64 65 66 66 66 67 68 69 71 72 72 72 73 75 76 76 76 76 76 77 79 80 83 84 86 88 89 91 93 95 97 99 101 103 105 107 110 112 115 116 117 117 116 115 112 109 107 105 105 106 108 110 113 116 118 120
46 46 45 45 45 45 45 46 47 47 47 48 48 49 50 51 52 52 53 55 56 57 58 59 60 60 61 62 62 63 65 65 66 67 68 68 68 69 70 72 73 74 73 74 76 77 77 78 78 79 80 81 83 84 86 89 91 92 94 95 97 99 101 103 105 107 110 112 114 116 117 117 117 116 114 111 108 106 105 105 106 108 111 114 116 119 121
47 47 46 46 46 46 46 47 48 48 48 48 49 50 51 52 53 53 54 55 57 58 59 60 61 61 62 63 63 64 66 67 67 68 69 70 69 69 70 72 74 75 75 75 77 79 80 80 81 82 83 84 85 86 88 91 93 95 97 99 100 102 104 106 108 110 112 114 115 116 117 117 116 115 112 110 107 105 105 105 107 109 112 114 117 119 121
49 49 48 47 47 47 48 49 50 50 49 49 50 51 52 53 54 55 55 56 58 59 60 61 62 62 62 62 63 64 66 67 67 68 70 71 70 70 71 72 74 75 76 78 79 81 82 83 83 84 86 87 88 89 91 93 95 97 99 101 103 105 106 108 110 112 114 115 116 117 116 116 115 113 110 108 106 105 105 106 108 110 113 115 118 120 122
50 50 49 48 48 48 49 50 50 52 52 51 51 52 53 54 55 56 57 57 59 60 61 62 62 62 62 63 63 64 66 67 68 69 70 71 71 71 72 73 74 76 77 79 81 83 85 86 86 87 88 90 92 93 94 96 98 100 102 104 106 107 109 111 113 114 115 116 116 116 116 115 113 111 108 106 105 105 105 107 109 111 114 116 119 121 122
51 51 51 51 50 50 50 50 51 52 54 54 54 54 55 56 57 58 58 59 60 61 62 62 63 63 64 64 64 65 66 67 68 70 71 72 72 72 74 75 76 77 79 82 84 86 88 89 90 90 91 93 95 96 97 99 101 103 105 107 109 110 112 113 114 115 116 116 116 115 114 113 111 108 106 105 104 105 106 108 110 112 115 117 119 122 123
52 52 52 53 52 52 51 52 52 53 54 55 56 57 57 58 59 60 60 61 62 63 64 64 64 65 65 66 67 68 68 68 69 71 73 74 75 75 76 77 79 80 81 84 86 89 91 93 94 94 95 97 98 99 100 102 104 107 108 110 111 113 114 114 115 115 116 115 114 114 112 111 108 106 105 104 104 105 106 109 111 113 115 118 120 122 122
54 53 54 55 55 54 53 53 54 54 55 56 58 59 60 60 61 62 62 63 64 65 65 66 66 67 68 70 71 72 72 71 72 73 75 77 78 78 79 80 81 83 84 86 88 90 92 95 97 98 99 101 102 102 104 105 107 110 111 112 113 114 114 115 115 115 114 113 113 112 110 108 106 104 103 103 104 105 107 109 112 114 116 118 120 122 121
Wind_Direction
285 289 296 302 305 305 307 310 314 317 319 321 323 324 327 329 331 335 339 341 341 340 340 341 342 343 343 342 340 339 340 342 343 344 344 345 347 349 351 353 353 354 354 354 354 354 354 355 357 358 0 2 3 4 6 6 7 8 8 8 8 8 7 6 4 2 360 358 356 354 351 348 345 343 341 339 337 336 336 335 332 329 327 330 332 328 324
287 293 299 302 304 308 312 315 318 321 323 324 326 328 330 333 337 340 342 342 341 341 343 344 343 343 343 343 342 343 345 346 347 348 349 351 352 354 355 356 356 356 356 356 356 356 358 359 0 2 4 6 8 9 10 11 11 12 12 12 12 12 12 10 9 8 6 4 2 359 357 355 352 349 346 345 343 342 343 340 336 334 334 333 335 333 329
288 295 300 303 308 313 316 319 322 325 326 327 329 332 335 339 342 342 341 341 342 344 344 344 343 345 346 346 346 348 350 351 352 353 354 355 356 357 358 359 358 358 357 357 358 359 360 2 3 5 7 8 10 11 12 13 13 14 14 14 13 13 13 12 11 11 9 8 7 4 2 360 357 354 352 350 348 347 348 346 341 342 341 338 339 340 337
290 297 303 309 314 317 321 324 326 327 328 331 334 336 340 343 343 340 340 342 343 345 345 344 345 349 350 350 351 353 355 356 357 358 358 359 359 0 0 360 359 359 358 359 360 1 2 4 6 7 9 10 11 12 13 13 14 14 14 14 14 13 13 13 12 12 11 10 9 8 6 4 2 360 356 354 352 351 352 351 347 348 347 343 342 344 343
295 303 310 315 318 322 326 328 328 329 331 334 338 341 343 342 340 340 341 342 343 345 345 346 349 352 352 353 356 358 359 360 0 0 1 1 2 1 1 0 360 360 360 1 2 3 4 5 7 8 9 10 10 11 12 13 14 14 14 14 14 13 12 12 12 12 11 11 10 9 8 7 5 3 360 357 354 353 355 355 351 350 350 348 346 346 345
305 311 316 320 323 327 330 329 330 332 335 338 341 343 342 340 338 339 340 341 343 346 347 349 352 354 355 357 360 1 2 2 2 3 3 3 3 2 1 1 1 1 1 2 3 3 5 6 6 8 8 9 10 10 11 12 12 13 13 13 13 13 12 12 12 11 11 11 10 10 9 8 7 6 3 360 357 355 356 356 353 351 352 352 350 348 346
314 318 321 324 329 331 331 330 333 335 338 341 342 341 339 338 338 338 339 341 344 347 349 352 354 356 358 1 2 3 3 3 3 4 3 3 3 2 1 1 1 1 1 2 3 3 4 5 5 6 7 7 8 8 9 10 11 11 11 11 11 12 11 11 11 11 10 10 10 10 9 9 8 7 5 3 359 357 357 357 354 354 353 353 352 349 347
318 321 325 330 333 332 331 332 335 338 341 343 342 339 338 337 337 338 338 342 346 349 351 354 356 358 1 2 3 4 4 3 4 4 4 3 3 2 2 1 1 1 1 2 2 3 3 3 4 5 5 5 6 7 7 8 9 10 10 10 10 10 10 9 9 10 10 10 10 10 9 8 8 8 7 5 2 358 358 359 357 355 354 353 351 350 348
321 326 330 334 334 332 332 334 337 341 343 342 340 338 337 338 338 338 340 344 348 350 353 356 358 0 2 2 3 3 3 3 3 3 3 3 2 2 1 0 360 360 360 0 1 1 2 2 2 3 3 4 4 5 5 6 7 7 8 9 9 9 9 9 8 8 9 9 8 9 9 8 8 8 7 6 4 0 359 0 359 356 355 353 352 350 349
326 330 335 336 333 331 333 336 340 344 344 342 340 339 339 339 339 340 343 347 349 352 355 357 359 1 1 1 1 1 1 2 2 2 2 1 1 0 360 359 359 359 359 359 360 0 0 0 0 0 1 2 2 3 3 4 5 5 6 7 7 7 8 8 7 6 7 7 7 7 9 8 8 8 7 7 6 2 0 1 360 357 356 354 353 352 350
330 336 337 334 331 331 335 339 343 345 343 341 341 340 340 340 340 342 346 348 350 354 356 357 359 0 360 359 359 359 359 359 359 359 358 358 358 358 357 357 357 357 357 358 358 358 359 359 359 359 359 360 0 1 1 2 3 3 4 5 6 6 6 7 7 6 5 6 6 6 7 7 7 7 7 7 7 5 1 0 1 359 357 355 354 353 352
335 337 335 331 329 332 338 343 345 344 343 343 342 342 341 341 342 345 348 350 353 355 356 357 359 359 358 357 356 356 355 355 355 355 354 354 355 355 355 355 355 355 355 356 356 356 356 357 357 357 357 357 358 358 359 0 1 1 2 3 4 5 5 5 6 6 5 5 6 5 5 6 6 6 6 7 7 6 3 1 1 0 358 357 355 354 352
337 335 332 328 329 334 341 345 345 345 344 343 343 342 342 343 345 348 350 352 354 356 357 357 358 357 356 355 354 353 352 351 351 351 351 352 352 352 352 352 352 352 352 353 353 353 353 354 354 355 355 355 356 357 357 358 359 360 360 0 1 3 4 4 5 5 4 4 4 4 4 5 5 5 5 5 6 6 4 2 1 1 360 358 356 355 353
335 332 328 326 330 338 343 345 345 345 344 344 344 343 343 346 349 351 352 354 356 357 357 357 356 354 354 353 352 351 351 350 350 350 351 351 350 350 350 350 350 350 350 350 350 350 350 350 351 352 353 353 354 355 355 356 356 357 358 359 359 0 2 3 3 4 4 3 3 4 4 4 4 4 4 4 5 6 5 3 2 2 1 359 357 356 354
331 328 325 325 333 341 344 345 346 346 344 344 344 344 345 350 353 354 355 356 357 358 357 356 355 353 352 351 350 350 350 350 350 351 351 351 350 350 350 350 350 350 350 350 351 350 350 349 348 349 349 350 352 353 353 354 354 355 356 357 357 358 359 1 1 2 3 2 2 2 3 3 3 3 3 3 3 4 5 4 3 2 1 0 358 357 355
328 325 322 326 336 342 344 346 346 345 344 344 343 345 349 353 355 355 357 358 359 359 358 356 354 352 350 349 349 349 348 349 349 350 350 350 350 350 350 351 351 351 351 351 352 352 352 351 350 349 349 349 349 351 352 353 353 353 354 355 355 355 357 358 359 360 1 1 1 1 1 2 2 2 2 2 2 3 4 4 3 3 2 1 360 358 356
325 321 321 328 338 343 344 345 346 344 343 343 343 348 353 356 356 357 358 360 0 360 358 356 354 352 350 349 348 348 347 347 347 348 348 349 349 349 350 351 351 351 351 352 352 353 354 353 352 351 351 350 350 350 350 351 351 351 352 353 353 353 354 356 357 358 359 0 360 359 359 0 0 0 1 1 1 1 2 3 3 3 2 2 1 359 358
322 318 321 331 339 342 343 345 344 343 342 341 344 351 355 356 357 358 360 1 1 360 358 356 355 352 351 351 349 349 348 348 347 347 347 347 348 348 349 350 350 351 352 352 352 353 354 355 355 354 353 353 352 351 350 351 351 351 351 351 352 352 352 354 355 356 357 358 359 359 358 358 359 359 359 360 0 0 1 2 2 3 2 2 2 1 359
319 317 322 331 338 340 342 343 343 341 340 341 347 353 355 356 358 359 0 0 360 359 357 356 355 353 353 352 351 350 350 350 349 349 348 348 348 348 348 349 350 351 352 352 353 353 354 355 355 355 354 354 354 353 352 351 352 353 352 351 352 352 352 353 354 355 355 356 357 358 358 357 357 358 358 358 359 359 360 1 1 2 2 2 2 1 360
316 315 321 329 335 338 340 342 341 338 339 344 351 354 354 355 358 359 359 359 358 357 356 355 355 354 354 354 353 352 352 351 351 350 350 350 349 349 349 349 350 351 352 352 353 353 354 355 355 355 355 355 355 355 354 353 353 353 353 352 352 353 352 353 353 353 354 354 355 356 357 357 356 357 357 358 358 359 359 360 0 1 1 1 1 1 360
313 313 318 326 333 336 339 340 339 338 342 350 353 352 353 356 357 356 356 356 356 356 355 355 356 356 356 355 354 354 354 352 352 351 351 351 350 350 350 350 350 351 352 352 353 353 354 354 355 355 355 355 355 355 355 354 353 353 354 353 353 353 353 353 354 353 353 354 354 354 356 357 356 356 356 356 357 358 358 359 360 0 0 1 1 1 360
311 310 316 324 331 335 337 338 338 341 346 350 350 349 352 353 353 352 352 353 353 352 353 354 356 357 357 357 357 356 355 354 353 353 352 352 351 351 351 351 351 352 352 353 353 354 354 354 355 355 355 355 355 354 354 354 353 354 354 354 354 354 353 353 354 353 353 353 353 353 354 355 355 355 355 356 356 357 357 358 359 359 359 360 0 0 360
310 309 315 322 329 333 335 336 338 341 343 345 346 347 349 349 348 348 349 349 349 350 352 355 357 357 358 358 358 357 356 356 355 354 353 353 352 352 352 352 352 352 353 353 354 354 355 355 354 354 354 354 354 355 355 355 355 355 356 356 356 356 355 354 354 354 353 352 353 352 352 353 354 354 355 355 355 356 356 357 357 358 358 359 359 360 360
309 308 312 318 325 329 330 332 336 338 339 342 344 345 345 344 344 345 347 347 349 351 354 356 357 357 358 358 358 358 358 357 356 354 354 354 353 353 353 353 353 353 353 353 354 354 355 355 354 354 354 354 355 356 357 358 358 357 358 358 357 357 356 354 353 353 353 353 352 352 352 352 352 353 353 354 354 355 355 356 356 357 358 358 359 359 359
308 306 308 313 319 323 325 329 333 335 338 339 339 339 340 341 342 344 346 347 350 352 355 356 356 356 356 357 357 358 357 357 356 355 354 354 353 353 353 353 353 353 353 353 354 354 354 354 354 355 355 356 357 357 358 360 0 359 359 359 358 357 357 355 354 353 353 352 352 352 351 351 351 352 352 353 353 354 354 355 356 356 357 357 358 358 359
307 304 306 310 313 318 321 325 330 333 334 334 334 335 337 339 342 344 346 347 349 352 354 355 355 355 355 356 356 356 356 356 356 355 355 354 353 353 352 352 352 353 352 352 353 354 354 354 355 356 357 358 358 358 358 359 0 359 359 358 358 358 358 358 356 355 354 353 352 352 351 350 350 350 351 351 352 353 353 354 355 355 356 357 357 357 358
306 304 303 306 309 313 317 320 323 327 329 330 331 333 335 339 341 343 344 345 348 350 352 353 354 354 355 354 354 354 355 355 355 354 354 354 353 352 352 351 351 351 351 351 352 352 353 354 355 356 357 358 358 357 357 358 359 359 358 357 358 358 359 358 358 357 357 355 354 353 352 351 349 349 350 350 351 351 352 353 354 354 355 356 356 357 357
305 303 302 302 304 307 311 314 318 321 325 327 328 330 333 337 340 341 342 344 345 347 349 351 352 353 353 352 352 352 353 353 353 353 353 352 352 352 351 350 350 349 350 350 350 351 352 353 354 354 355 355 356 356 355 355 355 356 356 356 356 356 356 357 357 357 357 356 355 354 354 353 351 350 349 350 350 350 351 352 352 353 354 355 356 356 356
303 303 301 300 301 302 306 309 312 316 320 323 326 328 331 334 337 338 340 341 343 344 346 348 349 350 350 350 350 351 351 351 351 351 351 351 351 350 350 349 348 348 348 348 349 349 350 351 352 352 352 352 353 353 353 352 352 352 353 353 353 353 354 354 355 356 356 356 355 354 354 354 353 351 350 350 349 349 350 351 351 352 353 354 355 355 355
301 302 301 299 298 299 301 304 308 311 315 319 322 325 327 330 332 334 336 338 340 341 343 344 346 347 347 348 349 349 348 348 349 349 349 349 349 348 348 347 347 347 346 346 346 347 348 349 350 350 349 349 349 349 350 350 349 349 350 351 351 352 352 352 353 354 355 355 355 354 354 354 353 352 351 350 349 349 349 350 350 351 352 353 354 354 354
298 300 300 299 297 297 299 301 304 308 311 315 318 321 323 325 327 329 332 334 336 337 339 340 342 343 344 345 346 346 345 346 346 347 347 347 346 346 346 346 346 346 345 344 344 344 345 346 347 347 347 346 346 346 347 347 347 348 348 349 349 350 351 351 352 352 353 354 354 353 353 353 353 352 351 350 349 348 348 349 349 350 351 352 353 353 353
296 297 299 299 298 297 297 299 301 304 308 311 314 316 319 321 323 324 326 329 331 333 335 336 338 339 340 340 341 342 343 343 344 344 344 345 344 344 344 344 344 344 343 343 342 342 342 343 343 344 344 345 344 344 344 345 345 346 347 348 348 348 349 350 350 350 351 352 352 353 352 352 352 352 351 350 349 348 348 348 348 349 350 351 351 352 352
294 295 297 298 298 297 297 297 299 301 304 307 310 312 314 316 318 320 322 324 326 328 331 332 334 336 336 337 338 339 340 341 342 342 342 342 342 342 342 341 342 342 342 341 341 340 339 340 340 341 341 342 343 343 342 343 344 344 345 346 347 347 348 348 348 349 349 350 351 351 351 351 351 351 350 350 349 348 348 347 348 348 349 350 350 351 352
292 292 294 297 298 298 297 297 298 299 301 304 306 308 310 312 314 316 318 320 323 324 327 329 331 332 333 334 335 336 337 338 339 340 339 339 339 339 339 339 339 340 340 340 339 339 338 337 338 338 339 339 340 341 341 341 342 342 343 344 345 346 347 347 347 347 348 349 349 350 350 350 350 350 350 349 349 348 347 347 347 347 348 349 350 350 351
291 291 292 295 298 299 299 298 298 298 299 301 303 305 307 309 310 312 314 317 319 321 323 325 327 328 330 331 332 333 334 335 335 336 336 336 336 337 337 337 337 337 337 338 338 338 336 335 335 335 336 337 338 339 340 340 340 341 342 342 343 344 345 346 346 346 346 347 348 348 349 349 349 349 349 349 348 347 347 346 346 347 347 348 349 349 350
290 290 291 293 296 298 299 299 298 298 298 299 300 302 304 306 307 309 311 313 316 318 319 321 323 325 326 327 328 330 331 331 332 333 333 334 334 334 335 336 335 335 335 336 336 336 335 334 333 333 334 334 335 336 338 339 339 340 340 341 342 342 343 344 344 345 345 346 347 347 348 348 348 349 349 348 348 347 346 346 345 346 346 347 348 348 349
289 289 290 292 295 298 299 299 299 299 298 298 299 300 302 303 305 307 309 311 313 315 317 318 320 322 323 324 325 327 328 328 329 329 330 331 331 331 332 333 334 333 333 333 333 334 334 333 332 332 332 333 333 335 336 336 337 338 339 339 340 341 342 343 343 344 344 345 345 346 347 347 348 348 348 348 347 346 346 345 345 345 346 346 347 347 348
289 289 289 291 294 297 300 301 301 300 300 299 299 300 301 302 304 305 307 309 311 312 314 316 317 319 321 322 323 325 325 326 326 326 327 328 329 329 330 331 331 331 331 331 331 332 332 332 332 331 331 331 332 333 334 335 335 336 337 338 339 340 341 341 342 343 343 344 344 345 346 346 347 347 347 347 346 346 345 344 344 344 345 345 346 346 347
289 289 289 290 293 296 299 301 302 302 301 301 301 301 301 302 303 305 306 308 309 310 312 314 315 317 319 320 321 322 323 324 324 324 325 326 327 327 328 328 329 330 330 329 330 330 331 331 331 330 330 330 330 331 333 333 334 335 336 337 338 339 340 340 341 342 342 343 344 344 345 345 346 346 347 346 346 345 344 344 343 343 344 344 345 345 346
289 289 289 289 292 295 298 300 302 303 303 302 302 302 302 303 303 304 305 307 308 309 311 312 314 316 317 318 319 320 321 321 321 322 323 324 325 326 326 327 328 328 328 328 328 329 329 330 330 330 329 330 330 331 332 333 334 334 335 336 337 338 339 339 340 341 342 342 343 343 344 344 345 345 346 345 345 344 343 343 342 342 343 344 344 345 345
288 288 288 288 290 293 296 299 301 303 304 304 303 303 303 304 304 304 305 306 307 308 309 311 312 314 315 316 317 317 318 318 319 320 321 322 323 324 325 325 326 326 327 327 327 327 329 330 330 329 329 329 329 330 331 333 333 334 334 336 337 337 338 339 339 340 341 341 342 342 343 343 344 344 344 344 344 343 343 342 342 342 342 343 344 344 345
288 288 287 287 289 292 295 298 301 303 304 305 305 305 305 305 305 305 305 305 306 307 308 309 311 312 313 314 315 315 316 317 318 318 319 320 321 322 323 323 324 325 326 326 326 327 328 329 329 329 329 329 329 330 331 332 333 333 334 335 336 337 337 338 339 339 340 340 341 341 342 342 343 343 343 343 343 342 342 341 341 341 341 342 343 343 344
287 287 286 286 288 291 294 297 299 302 304 305 305 306 306 306 306 306 306 306 306 307 308 309 310 311 312 313 314 314 315 316 317 317 318 319 320 321 322 322 322 323 325 325 326 326 327 327 328 328 329 329 329 329 330 331 332 333 333 334 335 336 337 337 338 338 339 339 340 340 341 341 342 342 342 342 342 342 341 341 340 340 341 341 342 343 343
286 287 286 285 287 289 292 295 298 301 304 305 306 306 306 307 307 307 307 307 307 308 308 309 310 310 311 312 313 314 314 315 316 316 317 319 320 320 321 321 322 323 324 325 325 325 326 326 327 327 328 328 328 329 330 330 331 332 333 333 334 335 336 337 337 338 338 339 339 339 340 340 341 341 341 341 341 341 340 340 340 340 340 341 341 342 342
285 286 285 284 285 288 291 294 297 300 303 305 306 307 307 307 307 307 307 307 307 308 308 309 310 310 311 312 313 314 314 315 316 316 317 318 320 320 321 321 322 323 324 324 324 324 324 325 326 327 328 328 328 329 329 330 330 331 332 333 334 335 335 336 337 337 338 338 338 338 339 340 340 340 340 340 340 340 339 339 339 339 340 340 341 341 342
284 285 284 283 284 287 290 293 295 298 302 304 306 307 307 307 307 307 307 307 307 307 307 308 309 310 311 312 314 314 315 316 316 317 317 319 320 321 321 321 322 322 323 324 323 323 323 324 326 327 328 328 328 329 329 330 330 331 332 333 334 334 335 336 336 337 337 337 337 338 338 339 339 339 339 339 339 339 339 339 339 339 339 339 340 340 341
284 284 283 282 284 286 289 291 294 296 299 302 304 306 306 306 306 306 306 306 306 307 307 308 309 310 312 313 315 316 316 316 317 318 318 319 320 321 321 322 322 322 323 323 322 322 323 324 326 327 327 327 328 329 329 330 330 331 332 333 333 334 335 335 336 335 336 336 336 337 337 338 338 338 338 338 338 338 338 338 338 338 338 339 339 340 340
283 283 282 281 283 285 288 291 293 295 297 300 302 304 305 305 305 305 306 306 306 307 308 309 310 311 313 315 316 317 317 317 318 319 319 319 320 321 322 322 322 322 322 322 322 322 322 324 325 326 327 327 328 329 329 330 330 331 331 332 333 333 334 334 334 334 335 335 336 336 337 337 337 337 337 337 337 337 337 337 337 337 338 338 339 339 340
283 283 281 281 282 284 286 289 292 294 296 298 300 301 302 303 304 304 305 306 307 308 309 310 311 313 315 316 317 317 316 317 318 319 319 319 320 321 321 321 321 322 322 322 322 322 322 324 325 326 326 327 328 329 329 330 330 330 331 331 332 332 333 333 333 333 334 334 335 335 336 336 336 336 336 336 336 336 336 336 336 337 337 338 338 338 339
282 282 280 280 281 283 285 287 290 292 295 297 298 299 301 302 303 304 305 307 308 308 309 311 313 314 316 317 316 315 315 316 318 318 318 318 319 320 320 320 321 322 322 322 321 322 323 324 325 326 326 326 327 328 329 329 329 329 330 330 331 331 332 332 333 333 333 334 334 335 335 335 335 336 336 336 336 336 335 335 336 336 337 338 338 338 338
281 280 279 279 280 281 283 285 287 290 292 294 296 297 299 300 302 303 305 306 307 308 309 311 312 313 314 314 313 313 314 315 317 317 317 317 318 319 319 320 321 321 322 321 322 322 323 323 324 325 325 326 327 328 328 328 328 329 329 329 330 330 331 332 332 332 333 333 334 334 334 334 335 335 335 335 335 335 334 334 335 336 337 337 337 337 338
279 278 278 279 280 281 282 284 286 288 290 291 293 295 297 298 300 301 303 304 305 306 308 310 311 312 312 312 312 312 313 315 315 316 316 316 317 318 319 320 321 321 321 321 321 322 322 322 323 324 324 325 326 327 327 327 327 327 328 328 329 330 330 331 331 332 332 332 333 333 333 334 334 334 334 334 334 333 333 334 335 335 336 337 337 337 337
Height
10645 10644 10643 10642 10642 10640 10638 10636 10633 10631 10629 10626 10624 10622 10619 10616 10613 10610 10607 10605 10602 10599 10597 10594 10591 10588 10585 10582 10580 10577 10574 10571 10567 10564 10561 10558 10555 10551 10548 10544 10540 10536 10532 10528 10524 10519 10515 10510 10505 10500 10495 10490 10485 10480 10474 10468 10462 10457 10452 10446 10441 10435 10429 10423 10417 10411 10405 10400 10394 10387 10382 10374 10366 10360 10355 10349 10343 10336 10330 10322 10315 10307 10298 10293 10289 10279 10272
10643 10642 10642 10641 10640 10638 10636 10633 10631 10629 10627 10624 10622 10620 10617 10614 10611 10609 10606 10604 10601 10598 10595 10593 10590 10587 10584 10581 10578 10575 10572 10569 10565 10562 10559 10556 10553 10549 10546 10542 10538 10534 10530 10526 10522 10518 10514 10509 10504 10499 10494 10489 10483 10478 10472 10467 10461 10456 10450 10445 10440 10434 10429 10423 10417 10411 10405 10398 10392 10385 10379 10372 10364 10357 10350 10344 10338 10332 10326 10318 10310 10304 10294 10288 10285 10277 10266
10642 10642 10641 10639 10638 10636 10634 10631 10629 10627 10625 10623 10620 10618 10615 10612 10610 10607 10605 10603 10600 10597 10595 10592 10589 10586 10583 10580 10577 10574 10570 10567 10564 10561 10558 10554 10551 10548 10544 10541 10537 10533 10529 10525 10521 10517 10512 10508 10502 10497 10492 10487 10482 10476 10471 10466 10460 10455 10449 10443 10437 10432 10426 10421 10415 10409 10403 10397 10390 10383 10376 10369 10361 10353 10346 10340 10334 10328 10322 10314 10305 10298 10289 10280 10277 10272 10261
10641 10640 10639 10637 10635 10634 10632 10630 10628 10626 10623 10621 10618 10616 10613 10611 10609 10607 10604 10602 10599 10596 10594 10591 10588 10585 10582 10579 10575 10572 10569 10566 10562 10559 10556 10553 10550 10546 10543 10539 10536 10532 10528 10524 10520 10516 10511 10506 10501 10496 10491 10486 10481 10475 10470 10464 10459 10453 10447 10441 10435 10429 10423 10417 10411 10404 10398 10391 10385 10378 10371 10363 10355 10348 10340 10334 10328 10322 10317 10308 10299 10293 10286 10275 10267 10263 10257
10640 10639 10637 10635 10633 10632 10630 10628 10626 10624 10622 10619 10617 10614 10612 10610 10608 10606 10603 10601 10598 10595 10593 10590 10586 10583 10580 10577 10574 10570 10567 10564 10561 10558 10555 10552 10548 10545 10541 10538 10535 10531 10527 10523 10519 10514 10509 10504 10499 10495 10490 10485 10479 10474 10469 10463 10457 10452 10446 10440 10433 10427 10420 10413 10407 10400 10394 10387 10380 10373 10366 10358 10350 10343 10335 10328 10321 10316 10310 10303 10295 10288 10283 10274 10264 10256 10251
10638 10636 10635 10633 10632 10630 10628 10626 10625 10622 10620 10618 10615 10613 10611 10609 10607 10605 10602 10600 10597 10594 10591 10588 10585 10582 10579 10576 10572 10569 10566 10563 10560 10557 10554 10551 10547 10544 10541 10537 10533 10529 10525 10521 10517 10512 10508 10503 10498 10493 10488 10483 10478 10473 10467 10462 10456 10450 10444 10438 10431 10425 10418 10411 10404 10397 10390 10383 10376 10369 10361 10354 10347 10340 10332 10324 10316 10309 10304 10298 10292 10284 10277 10270 10262 10253 10247
10636 10635 10633 10632 10630 10628 10627 10625 10623 10621 10618 10616 10614 10612 10610 10608 10606 10604 10602 10599 10596 10593 10590 10587 10584 10581 10577 10574 10571 10568 10565 10562 10559 10556 10553 10550 10546 10543 10540 10536 10532 10528 10524 10520 10516 10511 10506 10502 10497 10492 10487 10482 10477 10471 10466 10460 10454 10448 10442 10436 10430 10424 10417 10410 10404 10397 10389 10382 10374 10367 10359 10352 10345 10337 10330 10321 10312 10306 10301 10295 10288 10279 10271 10264 10259 10252 10244
10634 10633 10632 10630 10628 10627 10625 10623 10621 10619 10617 10615 10613 10611 10609 10607 10605 10603 10600 10598 10595 10592 10589 10586 10583 10579 10576 10573 10570 10567 10564 10561 10558 10555 10552 10549 10546 10542 10538 10535 10531 10527 10523 10519 10514 10510 10505 10500 10496 10491 10486 10481 10475 10470 10465 10459 10453 10448 10442 10435 10429 10423 10416 10410 10403 10396 10390 10382 10375 10368 10360 10352 10344 10336 10327 10319 10310 10302 10297 10291 10283 10275 10269 10262 10256 10250 10243
10633 10631 10630 10629 10627 10626 10624 10622 10620 10618 10616 10614 10612 10610 10608 10606 10604 10602 10599 10596 10593 10590 10587 10584 10581 10578 10575 10572 10569 10566 10564 10561 10558 10554 10551 10548 10545 10541 10537 10534 10530 10526 10522 10518 10513 10509 10504 10499 10494 10489 10484 10479 10474 10469 10463 10458 10452 10446 10441 10435 10428 10421 10415 10408 10401 10394 10388 10382 10375 10368 10361 10351 10343 10335 10326 10318 10309 10299 10291 10285 10278 10272 10267 10260 10253 10246 10239
10631 10630 10629 10627 10626 10624 10623 10621 10619 10617 10615 10613 10611 10609 10607 10605 10603 10600 10597 10595 10592 10589 10586 10583 10580 10577 10574 10571 10569 10566 10563 10560 10557 10554 10551 10547 10544 10540 10537 10533 10529 10525 10521 10516 10512 10507 10503 10498 10493 10488 10483 10478 10473 10467 10462 10456 10450 10445 10439 10433 10427 10420 10414 10407 10400 10393 10386 10379 10372 10365 10359 10351 10343 10335 10326 10317 10307 10296 10286 10281 10275 10268 10261 10255 10247 10240 10232
10630 10628 10627 10626 10625 10623 10621 10619 10617 10615 10614 10612 10610 10608 10606 10604 10601 10599 10596 10593 10591 10588 10585 10582 10579 10576 10573 10571 10568 10565 10562 10559 10556 10553 10550 10546 10543 10539 10536 10532 10528 10524 10519 10515 10510 10506 10501 10496 10491 10486 10481 10476 10471 10466 10461 10455 10449 10443 10437 10431 10425 10419 10413 10406 10400 10392 10384 10377 10370 10362 10355 10349 10342 10334 10325 10316 10306 10295 10284 10278 10272 10264 10254 10247 10240 10232 10225
10628 10627 10626 10625 10624 10622 10620 10618 10616 10615 10613 10611 10609 10607 10605 10603 10600 10598 10595 10592 10589 10586 10584 10581 10578 10575 10573 10570 10567 10564 10561 10558 10555 10552 10549 10545 10542 10538 10534 10530 10526 10522 10518 10513 10509 10504 10499 10494 10490 10484 10479 10474 10469 10464 10458 10453 10447 10441 10435 10429 10424 10418 10411 10405 10398 10391 10383 10376 10369 10361 10354 10347 10339 10331 10322 10314 10306 10297 10285 10274 10267 10259 10250 10242 10234 10226 10219
10627 10626 10625 10624 10622 10621 10619 10617 10615 10614 10612 10610 10608 10606 10604 10601 10599 10596 10594 10591 10588 10585 10582 10579 10577 10574 10572 10569 10566 10563 10560 10557 10554 10551 10547 10544 10540 10536 10532 10529 10524 10520 10516 10512 10507 10502 10497 10492 10487 10483 10477 10472 10466 10460 10454 10449 10443 10438 10432 10427 10421 10415 10409 10403 10396 10390 10382 10374 10367 10360 10352 10343 10335 10327 10320 10313 10306 10298 10287 10274 10264 10256 10248 10240 10232 10223 10215
10626 10625 10624 10623 10621 10619 10618 10616 10614 10613 10611 10609 10607 10605 10603 10600 10597 10595 10592 10589 10586 10584 10581 10578 10576 10573 10571 10568 10565 10562 10559 10556 10552 10549 10545 10542 10538 10534 10531 10527 10523 10518 10514 10510 10505 10500 10495 10490 10485 10480 10475 10469 10463 10458 10452 10446 10440 10435 10429 10423 10417 10412 10406 10401 10395 10388 10382 10374 10367 10359 10351 10343 10336 10328 10321 10313 10305 10297 10289 10277 10265 10256 10247 10238 10229 10221 10213
10625 10624 10623 10622 10620 10618 10617 10615 10614 10612 10610 10608 10606 10604 10601 10599 10596 10593 10591 10588 10585 10583 10580 10577 10575 10572 10570 10567 10564 10561 10558 10554 10551 10547 10544 10540 10536 10532 10529 10525 10520 10516 10512 10508 10503 10498 10493 10489 10484 10479 10474 10469 10463 10458 10452 10446 10439 10433 10427 10421 10414 10408 10403 10397 10392 10385 10379 10372 10365 10358 10351 10343 10335 10328 10319 10311 10303 10295 10288 10278 10267 10256 10246 10236 10227 10219 10210
10624 10623 10622 10620 10619 10617 10616 10614 10612 10611 10609 10607 10605 10603 10600 10597 10595 10592 10590 10587 10584 10581 10579 10576 10574 10571 10568 10566 10563 10560 10556 10553 10549 10546 10542 10538 10535 10531 10527 10523 10519 10514 10510 10505 10501 10497 10492 10486 10481 10477 10472 10467 10462 10456 10451 10445 10438 10432 10425 10419 10412 10406 10400 10394 10387 10381 10375 10367 10358 10351 10345 10338 10330 10322 10315 10307 10299 10292 10285 10277 10267 10256 10246 10236 10226 10216 10206
10623 10622 10621 10619 10617 10616 10615 10613 10611 10610 10608 10606 10604 10601 10599 10596 10594 10591 10588 10586 10583 10580 10578 10575 10573 10570 10567 10564 10561 10558 10555 10551 10548 10544 10541 10537 10533 10529 10524 10520 10516 10512 10508 10503 10498 10494 10490 10485 10479 10474 10469 10463 10458 10453 10448 10443 10437 10430 10424 10418 10410 10403 10396 10390 10384 10376 10370 10364 10356 10346 10338 10332 10325 10318 10310 10303 10295 10286 10279 10272 10263 10254 10243 10233 10223 10212 10202
10622 10621 10620 10618 10616 10615 10613 10612 10610 10609 10607 10605 10602 10600 10598 10595 10593 10590 10587 10585 10582 10580 10577 10574 10572 10569 10566 10563 10559 10556 10553 10549 10546 10542 10538 10535 10531 10527 10523 10519 10515 10510 10506 10501 10496 10492 10487 10483 10478 10471 10466 10460 10455 10449 10444 10440 10435 10428 10421 10415 10409 10401 10393 10387 10381 10374 10367 10361 10355 10346 10336 10328 10321 10314 10306 10298 10290 10281 10272 10263 10255 10246 10237 10227 10217 10207 10197
10621 10619 10618 10617 10615 10614 10612 10611 10609 10608 10606 10604 10601 10599 10597 10594 10592 10589 10586 10584 10581 10579 10576 10573 10571 10568 10564 10561 10558 10554 10551 10548 10544 10540 10537 10533 10529 10525 10521 10517 10513 10508 10504 10499 10495 10490 10485 10480 10475 10470 10464 10459 10453 10447 10439 10434 10429 10424 10417 10410 10404 10398 10391 10383 10377 10371 10364 10357 10352 10345 10337 10327 10319 10312 10303 10294 10286 10277 10268 10258 10249 10240 10230 10220 10210 10201 10191
10619 10618 10617 10616 10614 10613 10612 10610 10609 10607 10605 10602 10600 10598 10595 10593 10590 10588 10585 10583 10581 10578 10575 10573 10570 10566 10563 10560 10556 10553 10549 10546 10542 10539 10535 10531 10527 10523 10519 10515 10511 10506 10502 10497 10492 10488 10482 10478 10473 10468 10463 10457 10452 10446 10438 10430 10424 10419 10413 10405 10398 10392 10386 10379 10372 10365 10359 10353 10345 10340 10334 10324 10314 10306 10298 10291 10282 10273 10263 10253 10243 10233 10223 10214 10204 10195 10186
10618 10617 10616 10615 10613 10612 10611 10609 10608 10606 10603 10601 10599 10597 10594 10592 10589 10587 10585 10583 10580 10577 10575 10572 10568 10565 10562 10558 10555 10551 10548 10544 10541 10537 10534 10530 10526 10522 10518 10514 10510 10505 10500 10495 10491 10485 10480 10475 10470 10465 10460 10454 10448 10442 10437 10430 10422 10415 10409 10402 10395 10388 10380 10374 10367 10359 10352 10345 10337 10330 10325 10319 10310 10300 10291 10283 10275 10265 10256 10246 10237 10228 10218 10209 10200 10190 10181
10617 10616 10615 10613 10612 10611 10609 10608 10606 10604 10602 10600 10598 10596 10593 10591 10589 10587 10584 10582 10579 10577 10574 10570 10567 10564 10560 10557 10554 10550 10547 10543 10539 10535 10532 10528 10524 10520 10516 10512 10508 10504 10499 10494 10489 10483 10478 10472 10467 10462 10456 10451 10445 10439 10433 10427 10421 10414 10407 10400 10393 10386 10377 10370 10364 10355 10346 10339 10332 10324 10317 10312 10306 10298 10289 10279 10270 10260 10251 10242 10233 10224 10215 10206 10196 10186 10176
10615 10614 10613 10612 10610 10609 10608 10606 10605 10603 10601 10599 10597 10595 10592 10591 10588 10586 10584 10581 10578 10575 10572 10569 10565 10562 10559 10555 10552 10548 10545 10541 10537 10533 10530 10526 10522 10518 10514 10510 10505 10501 10497 10492 10487 10481 10475 10469 10463 10458 10453 10447 10442 10437 10431 10424 10418 10412 10406 10399 10392 10385 10377 10369 10363 10357 10348 10339 10331 10322 10314 10308 10301 10294 10287 10278 10268 10259 10250 10241 10231 10222 10212 10202 10192 10182 10172
10614 10613 10611 10610 10609 10608 10607 10605 10604 10602 10600 10598 10596 10593 10591 10590 10588 10585 10583 10580 10577 10573 10570 10567 10564 10560 10557 10554 10550 10546 10543 10539 10535 10531 10527 10523 10519 10515 10511 10507 10502 10498 10493 10489 10484 10478 10472 10467 10460 10454 10448 10442 10436 10432 10427 10421 10415 10409 10404 10399 10392 10386 10378 10369 10361 10355 10348 10339 10330 10321 10312 10305 10298 10291 10283 10275 10266 10257 10248 10239 10230 10220 10210 10200 10189 10179 10169
10612 10611 10610 10609 10608 10607 10605 10604 10602 10600 10598 10596 10594 10593 10591 10589 10586 10584 10581 10578 10575 10572 10568 10565 10562 10559 10556 10552 10548 10545 10541 10537 10533 10529 10525 10521 10516 10512 10508 10504 10499 10495 10490 10485 10480 10475 10469 10464 10458 10451 10445 10438 10432 10426 10422 10417 10412 10405 10399 10395 10389 10383 10377 10369 10360 10352 10345 10338 10331 10321 10311 10302 10295 10288 10280 10272 10264 10255 10246 10237 10228 10218 10207 10197 10186 10176 10166
10611 10610 10608 10607 10606 10605 10604 10602 10600 10599 10597 10595 10593 10591 10589 10587 10584 10582 10579 10576 10573 10570 10567 10564 10561 10557 10554 10550 10547 10543 10539 10535 10531 10527 10523 10518 10514 10509 10505 10501 10496 10492 10487 10482 10477 10473 10467 10462 10456 10450 10443 10437 10430 10423 10417 10412 10407 10401 10394 10389 10384 10378 10372 10366 10358 10350 10342 10335 10329 10322 10312 10301 10292 10284 10276 10268 10260 10252 10243 10233 10224 10214 10204 10194 10183 10173 10162
10609 10608 10607 10605 10604 10603 10602 10601 10599 10597 10596 10594 10592 10590 10587 10585 10582 10580 10577 10574 10571 10569 10565 10562 10559 10555 10552 10548 10545 10541 10537 10533 10529 10525 10520 10516 10512 10507 10502 10498 10493 10489 10484 10479 10475 10470 10465 10459 10453 10448 10442 10436 10429 10421 10415 10409 10404 10398 10390 10384 10378 10372 10367 10361 10354 10347 10339 10331 10324 10318 10311 10302 10291 10282 10273 10264 10255 10246 10237 10228 10219 10209 10200 10190 10180 10169 10159
10607 10606 10605 10604 10603 10601 10600 10599 10597 10596 10594 10592 10590 10588 10586 10583 10581 10578 10575 10573 10570 10567 10563 10560 10557 10553 10550 10547 10543 10539 10535 10531 10527 10522 10518 10513 10509 10504 10500 10495 10490 10486 10482 10477 10472 10467 10462 10457 10451 10445 10440 10434 10428 10421 10414 10407 10401 10396 10389 10381 10374 10368 10362 10357 10350 10343 10335 10327 10319 10311 10305 10297 10287 10277 10269 10259 10250 10241 10232 10222 10213 10203 10194 10184 10174 10164 10154
10605 10604 10603 10602 10601 10600 10598 10597 10595 10594 10592 10590 10588 10586 10584 10581 10579 10576 10574 10571 10567 10564 10561 10558 10555 10551 10548 10545 10540 10536 10532 10528 10524 10520 10516 10511 10506 10502 10498 10493 10488 10483 10479 10474 10469 10464 10459 10454 10449 10444 10438 10433 10428 10422 10415 10406 10399 10393 10388 10381 10374 10366 10359 10353 10347 10340 10331 10323 10314 10306 10298 10291 10282 10272 10263 10254 10245 10236 10227 10217 10208 10198 10188 10178 10168 10158 10149
10603 10602 10601 10600 10599 10597 10596 10595 10593 10592 10590 10588 10586 10584 10581 10579 10577 10574 10571 10568 10565 10562 10559 10556 10552 10549 10546 10542 10538 10534 10530 10526 10522 10517 10513 10509 10504 10500 10496 10491 10486 10481 10476 10471 10466 10462 10457 10452 10446 10441 10435 10429 10424 10420 10415 10408 10399 10392 10385 10379 10372 10365 10356 10348 10341 10336 10329 10320 10311 10301 10292 10285 10277 10267 10258 10249 10240 10231 10222 10212 10202 10192 10182 10172 10163 10153 10144
10601 10600 10599 10598 10596 10595 10594 10593 10591 10589 10588 10586 10584 10581 10579 10577 10574 10571 10569 10566 10563 10560 10557 10554 10550 10547 10543 10540 10536 10533 10529 10525 10520 10515 10511 10507 10502 10498 10494 10489 10484 10479 10474 10468 10463 10458 10453 10449 10444 10438 10433 10426 10419 10414 10409 10405 10399 10391 10383 10375 10367 10360 10352 10344 10336 10329 10323 10317 10309 10299 10288 10279 10271 10263 10254 10244 10235 10226 10217 10207 10197 10188 10178 10168 10159 10149 10139
10599 10598 10596 10595 10594 10593 10591 10590 10588 10587 10585 10583 10581 10579 10577 10574 10572 10569 10566 10563 10560 10557 10554 10551 10548 10545 10542 10538 10534 10531 10526 10522 10517 10513 10508 10503 10498 10494 10490 10486 10481 10476 10471 10466 10460 10454 10449 10445 10440 10435 10430 10424 10417 10410 10404 10399 10393 10387 10380 10372 10364 10356 10348 10340 10332 10324 10317 10310 10303 10296 10286 10276 10267 10259 10250 10241 10232 10222 10213 10204 10194 10184 10175 10165 10155 10145 10135
10596 10595 10594 10593 10591 10590 10589 10587 10586 10584 10583 10581 10579 10576 10574 10572 10569 10566 10563 10561 10558 10555 10552 10549 10545 10542 10539 10536 10532 10528 10523 10519 10514 10509 10504 10500 10495 10490 10485 10481 10477 10473 10468 10463 10457 10452 10447 10441 10436 10431 10425 10421 10415 10408 10401 10394 10388 10382 10376 10369 10362 10354 10345 10336 10327 10320 10312 10304 10297 10290 10282 10274 10265 10256 10247 10238 10228 10218 10209 10200 10191 10181 10171 10161 10151 10141 10131
10594 10593 10591 10590 10589 10587 10586 10584 10583 10581 10580 10578 10576 10573 10571 10569 10566 10563 10560 10558 10555 10552 10549 10546 10542 10539 10536 10532 10529 10525 10521 10517 10512 10508 10503 10498 10494 10489 10483 10478 10473 10469 10465 10460 10454 10449 10443 10437 10432 10427 10421 10416 10411 10406 10399 10392 10385 10378 10372 10365 10359 10351 10344 10335 10325 10316 10308 10301 10293 10284 10277 10269 10260 10251 10241 10232 10223 10213 10204 10195 10185 10176 10166 10156 10146 10136 10126
10591 10590 10589 10587 10586 10585 10583 10581 10580 10578 10577 10575 10573 10570 10568 10565 10563 10560 10557 10554 10552 10549 10546 10543 10540 10537 10533 10529 10525 10521 10518 10514 10510 10507 10502 10497 10492 10488 10483 10476 10470 10465 10461 10456 10451 10445 10439 10433 10428 10423 10417 10411 10406 10401 10396 10390 10382 10374 10367 10360 10354 10347 10341 10334 10325 10316 10306 10298 10290 10281 10272 10263 10254 10245 10235 10226 10217 10208 10198 10189 10179 10170 10160 10150 10140 10131 10121
10588 10587 10586 10584 10583 10582 10580 10578 10577 10575 10573 10571 10569 10567 10565 10562 10559 10557 10554 10551 10549 10546 10543 10540 10537 10534 10531 10527 10523 10519 10515 10511 10506 10502 10498 10494 10489 10484 10480 10475 10469 10463 10457 10453 10447 10442 10436 10430 10424 10418 10413 10407 10401 10395 10389 10384 10378 10371 10363 10356 10348 10341 10335 10329 10322 10313 10304 10295 10287 10278 10269 10259 10250 10240 10231 10220 10211 10202 10192 10182 10173 10164 10155 10145 10135 10125 10116
10585 10584 10583 10581 10580 10578 10577 10575 10574 10572 10570 10568 10566 10564 10561 10559 10556 10554 10551 10548 10545 10542 10539 10536 10533 10530 10527 10524 10520 10516 10512 10507 10503 10499 10495 10491 10486 10481 10476 10472 10467 10460 10455 10450 10445 10440 10434 10428 10421 10414 10408 10402 10396 10390 10383 10377 10372 10366 10360 10353 10345 10337 10329 10322 10316 10308 10300 10291 10283 10274 10265 10255 10245 10235 10225 10215 10205 10195 10186 10176 10167 10158 10149 10140 10130 10120 10110
10582 10581 10579 10578 10577 10575 10574 10572 10570 10569 10567 10565 10562 10560 10558 10555 10553 10550 10547 10544 10541 10538 10535 10532 10529 10526 10522 10518 10515 10512 10508 10503 10498 10494 10490 10487 10482 10477 10472 10468 10464 10458 10453 10448 10442 10437 10432 10426 10419 10412 10405 10398 10392 10386 10380 10373 10366 10360 10355 10348 10340 10332 10324 10316 10309 10302 10293 10285 10277 10268 10259 10250 10241 10231 10221 10210 10200 10190 10181 10171 10162 10152 10144 10134 10125 10115 10105
10579 10577 10576 10575 10574 10572 10571 10569 10567 10565 10563 10561 10559 10556 10554 10551 10549 10546 10543 10540 10537 10534 10531 10527 10524 10522 10518 10514 10509 10506 10503 10499 10494 10489 10484 10480 10477 10472 10467 10463 10459 10454 10448 10443 10438 10433 10428 10423 10417 10411 10404 10397 10389 10383 10376 10369 10361 10355 10348 10342 10334 10326 10318 10310 10303 10295 10286 10277 10268 10260 10251 10242 10234 10225 10216 10206 10196 10186 10177 10167 10158 10148 10139 10130 10120 10110 10100
10575 10574 10573 10571 10570 10569 10567 10566 10564 10562 10559 10557 10555 10552 10550 10547 10545 10542 10538 10535 10532 10529 10526 10523 10519 10516 10514 10510 10505 10501 10497 10494 10490 10485 10480 10475 10471 10466 10460 10455 10451 10447 10443 10437 10432 10428 10424 10418 10411 10405 10400 10394 10386 10379 10373 10365 10357 10349 10342 10336 10329 10321 10313 10304 10296 10289 10280 10271 10262 10253 10244 10235 10226 10218 10210 10200 10191 10182 10172 10163 10153 10144 10135 10125 10115 10105 10095
10572 10570 10569 10568 10566 10565 10564 10562 10560 10558 10555 10553 10551 10548 10546 10543 10541 10538 10535 10532 10528 10524 10521 10519 10516 10512 10509 10505 10501 10497 10493 10489 10485 10481 10476 10471 10467 10462 10456 10450 10445 10441 10437 10431 10426 10421 10418 10413 10407 10400 10393 10388 10382 10375 10368 10361 10353 10344 10337 10331 10324 10316 10308 10299 10291 10282 10274 10266 10257 10247 10238 10229 10220 10211 10203 10194 10185 10175 10166 10157 10148 10138 10129 10120 10110 10100 10090
10568 10567 10565 10564 10563 10561 10560 10558 10556 10554 10552 10549 10546 10544 10541 10539 10536 10533 10530 10527 10524 10520 10517 10514 10512 10508 10505 10501 10497 10493 10489 10485 10481 10477 10472 10468 10463 10459 10454 10447 10441 10436 10431 10425 10419 10414 10410 10407 10402 10395 10388 10381 10375 10369 10363 10357 10350 10341 10332 10325 10319 10312 10303 10295 10286 10277 10268 10260 10252 10243 10233 10224 10215 10205 10197 10188 10179 10170 10160 10151 10142 10132 10123 10114 10104 10094 10085
10564 10563 10561 10560 10559 10557 10556 10554 10552 10550 10548 10545 10542 10539 10536 10534 10532 10529 10525 10521 10518 10515 10512 10509 10506 10503 10500 10497 10493 10488 10484 10479 10474 10471 10467 10463 10458 10454 10450 10444 10438 10432 10427 10421 10414 10408 10403 10399 10395 10390 10384 10377 10369 10362 10357 10351 10345 10337 10328 10319 10312 10306 10298 10289 10281 10272 10263 10254 10245 10237 10228 10219 10209 10199 10190 10182 10173 10164 10155 10146 10136 10127 10117 10108 10098 10089 10079
10560 10559 10558 10556 10555 10553 10552 10549 10547 10546 10544 10541 10539 10536 10533 10529 10527 10524 10520 10516 10512 10509 10506 10503 10500 10497 10494 10491 10488 10483 10479 10474 10469 10464 10461 10457 10452 10447 10442 10437 10432 10427 10422 10416 10409 10403 10398 10392 10388 10384 10380 10373 10365 10358 10351 10344 10339 10333 10325 10316 10307 10300 10293 10284 10276 10267 10258 10248 10239 10230 10221 10212 10203 10194 10184 10176 10167 10159 10150 10140 10131 10121 10112 10102 10092 10083 10073
10556 10555 10553 10552 10550 10549 10548 10545 10543 10541 10539 10537 10534 10531 10528 10525 10522 10519 10516 10511 10507 10504 10500 10497 10494 10491 10488 10485 10482 10477 10473 10469 10465 10459 10455 10452 10447 10442 10436 10430 10424 10421 10417 10411 10403 10397 10393 10388 10382 10377 10373 10367 10359 10352 10344 10337 10330 10325 10319 10311 10302 10293 10286 10278 10269 10260 10251 10242 10233 10224 10215 10206 10197 10187 10178 10169 10161 10153 10144 10135 10125 10116 10106 10096 10086 10077 10067
10552 10550 10549 10547 10545 10544 10544 10541 10538 10536 10535 10533 10530 10527 10524 10520 10517 10515 10511 10507 10503 10499 10495 10492 10489 10486 10482 10479 10476 10472 10466 10462 10458 10453 10447 10444 10441 10436 10430 10424 10417 10413 10410 10405 10397 10390 10386 10381 10376 10370 10365 10359 10353 10345 10337 10329 10322 10315 10308 10302 10294 10286 10278 10269 10261 10253 10244 10236 10226 10217 10208 10199 10190 10181 10172 10163 10154 10146 10138 10129 10119 10110 10100 10090 10080 10070 10061
10547 10546 10545 10543 10541 10539 10539 10537 10534 10532 10530 10528 10525 10522 10519 10515 10512 10509 10505 10502 10497 10494 10490 10487 10484 10481 10477 10474 10471 10466 10460 10455 10451 10446 10440 10436 10434 10430 10425 10419 10412 10405 10401 10397 10390 10383 10378 10373 10369 10363 10357 10351 10345 10339 10332 10323 10315 10308 10300 10293 10285 10278 10270 10261 10253 10245 10237 10228 10220 10210 10201 10192 10183 10174 10165 10156 10147 10139 10131 10123 10113 10104 10094 10084 10074 10064 10055
10543 10541 10540 10539 10537 10535 10534 10531 10528 10526 10525 10523 10520 10516 10513 10510 10506 10503 10500 10496 10492 10488 10485 10482 10478 10476 10473 10469 10466 10461 10454 10448 10445 10440 10434 10429 10426 10423 10418 10413 10406 10399 10393 10387 10382 10375 10370 10365 10362 10357 10349 10342 10337 10331 10324 10316 10308 10301 10293 10286 10278 10270 10263 10255 10246 10238 10229 10221 10212 10203 10194 10185 10176 10167 10158 10150 10141 10132 10125 10116 10107 10097 10088 10078 10068 10057 10048
10538 10536 10534 10533 10532 10531 10529 10527 10524 10520 10517 10516 10515 10511 10507 10504 10500 10497 10494 10491 10486 10483 10479 10476 10472 10470 10467 10464 10460 10455 10448 10443 10439 10434 10428 10423 10420 10416 10411 10405 10400 10394 10387 10380 10373 10368 10362 10357 10354 10349 10342 10334 10328 10322 10315 10307 10299 10292 10285 10278 10270 10262 10256 10248 10240 10230 10222 10213 10205 10196 10187 10178 10169 10160 10152 10143 10134 10126 10118 10110 10101 10091 10081 10071 10061 10050 10041
10533 10531 10528 10527 10527 10526 10524 10523 10520 10516 10511 10509 10507 10505 10501 10497 10494 10490 10487 10484 10480 10476 10473 10469 10466 10463 10460 10457 10452 10447 10443 10439 10434 10428 10421 10417 10414 10411 10405 10399 10394 10388 10381 10373 10365 10358 10352 10347 10343 10340 10334 10327 10320 10314 10307 10299 10292 10284 10277 10270 10263 10255 10248 10241 10232 10223 10214 10205 10197 10188 10179 10171 10162 10153 10145 10136 10128 10119 10111 10103 10094 10084 10075 10064 10054 10043 10033
10527 10525 10523 10521 10520 10520 10519 10517 10515 10512 10508 10504 10500 10497 10495 10491 10487 10484 10481 10478 10474 10470 10466 10464 10461 10457 10454 10450 10445 10440 10438 10435 10430 10423 10416 10411 10407 10404 10399 10393 10387 10382 10375 10367 10359 10351 10343 10336 10331 10328 10323 10318 10313 10307 10300 10292 10284 10276 10269 10263 10256 10248 10240 10232 10224 10215 10206 10197 10189 10181 10172 10164 10155 10146 10138 10130 10122 10113 10105 10096 10087 10077 10068 10058 10047 10036 10026
10520 10519 10517 10514 10513 10513 10513 10511 10509 10506 10503 10499 10495 10492 10489 10485 10482 10479 10476 10473 10469 10465 10461 10458 10455 10451 10446 10441 10436 10432 10430 10428 10424 10418 10410 10404 10400 10397 10393 10387 10381 10374 10368 10362 10355 10347 10338 10330 10324 10318 10313 10308 10303 10299 10293 10286 10277 10268 10261 10254 10247 10240 10232 10224 10216 10207 10198 10190 10182 10173 10165 10157 10149 10140 10132 10123 10116 10107 10098 10089 10080 10070 10061 10051 10041 10029 10019